[[{"header":{"parameterUnit":"m.s-1","parameterCategory":1,"la1":30.2992,"la2":30.254,"lo1":-89.0895,"lo2":-89.0443,"dy":0.0025,"dx":0.0025,"nx":19,"ny":19,"refTime":"2026-04-09T03:00:00:Z","depth":0,"parameterNumber":2,"parameterNumberName":"U-component_of_WINDS"},"data":[0,0,0,-1.2216,-1.2216,-1.2237,-1.2237,-1.2278,-1.2278,0,0,0,0,0,0,0,0,0,0,0,-1.2217,-1.2218,-1.2216,-1.2216,-1.2237,-1.2237,-1.2278,-1.2278,0,0,0,0,0,0,0,0,0,0,0,-1.2217,-1.2218,-1.2218,-1.2216,-1.2237,-1.2237,-1.2278,-1.2257,0,0,0,0,0,0,0,0,0,0,-1.2235,-1.2243,-1.2217,-1.2218,-1.2217,-1.2237,-1.2237,-1.2256,-1.2259,-1.2274,0,-1.2289,0,-1.2285,-1.2282,-1.2282,0,0,0,-1.2211,-1.2241,-1.224,-1.2218,-1.2217,-1.2237,-1.2226,-1.2257,-1.226,-1.2278,-1.229,-1.2291,-1.2285,-1.2282,-1.2283,-1.2389,-1.239,0,0,-1.221,-1.2225,-1.2238,-1.2242,-1.2239,-1.2226,-1.2227,-1.2259,-1.2274,-1.229,-1.2292,-1.2286,-1.2283,-1.2283,-1.2388,-1.2389,0,0,0,-1.221,-1.2225,-1.2222,-1.2241,-1.2243,-1.2226,-1.2228,-1.2272,-1.227,-1.2292,-1.2286,-1.2283,-1.2284,-1.2388,-1.2389,-1.2441,0,0,0,-1.2209,-1.2225,-1.2222,-1.2232,-1.2243,-1.2258,-1.2241,-1.2268,-1.2271,-1.2286,-1.2283,-1.2284,-1.2387,-1.2388,-1.2438,-1.2464,0,0,0,-1.2213,-1.2225,-1.2231,-1.2233,-1.2242,-1.2257,-1.2256,-1.2268,-1.2268,-1.2282,-1.2284,-1.2386,-1.2388,-1.2435,-1.2459,-1.2497,0,0,0,-1.2222,-1.2278,-1.2232,-1.2291,-1.2242,-1.2289,-1.2256,-1.229,-1.2309,-1.2283,-1.2387,-1.2389,-1.2434,-1.2456,-1.2494,-1.2532,-1.2549,0,0,-1.2301,-1.2288,-1.2321,-1.2281,-1.234,-1.2284,-1.2351,-1.2354,-1.2341,-1.2374,-1.2376,-1.2439,-1.2459,-1.2496,-1.2638,-1.2652,0,0,0,-1.2352,-1.2376,-1.2388,-1.2406,-1.2409,-1.2414,-1.2404,-1.2405,-1.2432,-1.2361,-1.2462,-1.2473,-1.2495,-1.2512,-1.2524,-1.2542,-1.2397,-1.2397,-1.2397,-1.2486,-1.2466,-1.2521,-1.2504,-1.2521,-1.2511,-1.2524,-1.2523,-1.2498,-1.2523,-1.2533,-1.2621,-1.2642,-1.2651,-1.267,-1.255,-1.2551,-1.2551,-1.2551,-1.26,-1.2632,-1.2597,-1.2637,-1.2616,-1.265,-1.2642,-1.2623,-1.2652,-1.2612,-1.263,-1.2588,-1.2667,-1.2682,-1.2555,-1.2554,-1.2553,-1.2553,-1.2553,-1.2687,-1.2699,-1.2698,-1.2722,-1.2742,-1.2723,-1.2752,-1.2732,-1.2713,-1.273,-1.2739,-1.2738,-1.2736,-1.2736,-1.2736,-1.2736,-1.2737,-1.2737,-1.2737,-1.2778,-1.2775,-1.2802,-1.2809,-1.2818,-1.2827,-1.2816,-1.2824,-1.2828,-1.2811,-1.2811,-1.2785,-1.2677,-1.2651,-1.2742,-1.2741,-1.274,-1.274,-1.2739,-1.2904,-1.2872,-1.2913,-1.2922,-1.2928,-1.295,-1.2923,-1.2941,-1.2945,-1.296,-1.2929,-1.2853,-1.2838,-1.2829,-1.2807,-1.2933,-1.2933,-1.2933,-1.2933,-1.2978,-1.2968,-1.3006,-1.3021,-1.3033,-1.3012,-1.3061,-1.3053,-1.304,-1.3041,-1.302,-1.2989,-1.298,-1.2971,-1.2958,-1.2938,-1.3094,-1.3094,-1.3094,-1.3054,-1.3044,-1.309,-1.3075,-1.3078,-1.3081,-1.3127,-1.3146,-1.3124,-1.31,-1.3042,-1.3035,-1.2985,-1.297,-1.2946,-1.2927,-1.2889,0,0]},{"header":{"parameterUnit":"m.s-1","parameterCategory":1,"la1":30.2992,"la2":30.254,"lo1":-89.0895,"lo2":-89.0443,"dy":0.0025,"dx":0.0025,"nx":19,"ny":19,"refTime":"2026-04-09T03:00:00:Z","depth":0,"parameterNumber":3,"parameterNumberName":"V-component_of_WINDS"},"data":[0,0,0,1.6077,1.6078,1.6115,1.6115,1.6161,1.6162,0,0,0,0,0,0,0,0,0,0,0,1.6066,1.6067,1.6077,1.6078,1.6115,1.6115,1.6161,1.6162,0,0,0,0,0,0,0,0,0,0,0,1.6066,1.6066,1.6067,1.6078,1.6115,1.6115,1.6161,1.6133,0,0,0,0,0,0,0,0,0,0,1.6097,1.6088,1.6066,1.6067,1.6078,1.6115,1.6115,1.6132,1.6135,1.6144,0,1.6154,0,1.6158,1.6165,1.6165,0,0,0,1.6077,1.6086,1.6095,1.6067,1.6078,1.6115,1.6098,1.6134,1.6137,1.6148,1.6154,1.6156,1.6159,1.6165,1.6165,1.6223,1.6223,0,0,1.6075,1.6073,1.6093,1.6098,1.6093,1.6097,1.6099,1.6136,1.6142,1.6154,1.6157,1.616,1.6165,1.6166,1.6222,1.6223,0,0,0,1.607,1.6071,1.608,1.6096,1.6103,1.6098,1.6101,1.614,1.6143,1.6158,1.6161,1.6166,1.6166,1.6222,1.6222,1.6235,0,0,0,1.6068,1.6068,1.608,1.6079,1.6102,1.6122,1.6104,1.6141,1.6145,1.616,1.6166,1.6167,1.6222,1.6222,1.6234,1.6241,0,0,0,1.6064,1.6068,1.6073,1.6078,1.6094,1.6122,1.6127,1.6142,1.6147,1.6165,1.6167,1.6222,1.6222,1.6233,1.6239,1.6254,0,0,0,1.6058,1.6084,1.6074,1.6104,1.6094,1.6129,1.6127,1.6153,1.617,1.6166,1.6222,1.6222,1.6233,1.6238,1.6254,1.6267,1.6272,0,0,1.6089,1.6088,1.6106,1.6097,1.6134,1.6124,1.6162,1.6179,1.6183,1.6209,1.621,1.6234,1.6239,1.6254,1.6305,1.6309,0,0,0,1.6115,1.6127,1.6138,1.6154,1.6169,1.6181,1.6193,1.62,1.6222,1.6196,1.6244,1.6247,1.6256,1.6262,1.6266,1.6273,1.6225,1.6225,1.6225,1.6156,1.6159,1.6189,1.6196,1.6212,1.6224,1.6237,1.6247,1.6246,1.6257,1.6265,1.6295,1.6302,1.6305,1.6313,1.6272,1.6272,1.6273,1.6273,1.6202,1.622,1.6217,1.6245,1.6248,1.627,1.6282,1.628,1.6301,1.629,1.6298,1.6284,1.631,1.6317,1.6273,1.6273,1.6273,1.6273,1.6273,1.6229,1.6238,1.6246,1.627,1.6287,1.6294,1.6314,1.6315,1.6317,1.6325,1.6333,1.6332,1.6332,1.6329,1.6329,1.6329,1.6329,1.6329,1.6329,1.6254,1.6262,1.6279,1.6296,1.6306,1.632,1.6332,1.6342,1.6353,1.6353,1.6353,1.6349,1.6312,1.6302,1.6331,1.6331,1.633,1.633,1.633,1.6298,1.6288,1.6315,1.6325,1.6344,1.6361,1.6363,1.6383,1.6392,1.6401,1.6396,1.6369,1.6366,1.6364,1.6355,1.6396,1.6396,1.6396,1.6396,1.632,1.6319,1.6346,1.6363,1.6379,1.6383,1.6411,1.642,1.6428,1.6433,1.6427,1.6417,1.6414,1.6413,1.6409,1.6401,1.6453,1.6453,1.6453,1.6347,1.6348,1.6372,1.638,1.6395,1.6408,1.6434,1.6451,1.6458,1.6455,1.6436,1.6434,1.6417,1.6412,1.6408,1.6402,1.6388,0,0]}]]